Shannon, Ireland

10:08 AM GMT on November 25, 2017 (GMT +0000)
Shannon

Weather History for EINN - July, 2013

Change the Weather History Date:

Wednesday, July 31, 2013

  Actual Average Record
Temperature  
Mean Temperature 63 °F -  
Max Temperature 71 °F 67 °F 77 °F (1999)
Min Temperature 55 °F 53 °F 51 °F (2004)
Degree Days  
Heating Degree Days 2    
Growing Degree Days 13 (Base 50)    
Moisture  
Dew Point 60 °F    
Average Humidity 92    
Maximum Humidity 100    
Minimum Humidity 77    
Precipitation  
Precipitation 0.63 in 0.11 in - ()
Sea Level Pressure  
Sea Level Pressure 29.75 in    
Wind  
Wind Speed 8 mph ()    
Max Wind Speed 16 mph    
Max Gust Speed -    
Visibility 5.7 miles    
Events Rain    
Averages and records for this station are not official NWS values.
T = Trace of Precipitation, MM = Missing Value Source: Averaged Metar Reports

Daily Weather History Graph

Daily Weather History Graph

Search for Another Location

Airport or City:

Trip Planner

Search our weather history database for the weather conditions in past years. The results will help you decide how hot, cold, wet, or windy it might be!

Date:

Astronomy

Jul. 31, 2013 Rise Set
Actual Time 5:53 AM IST 9:29 PM IST
Civil Twilight 5:10 AM IST 10:12 PM IST
Nautical Twilight 4:11 AM IST 11:10 PM IST
Astronomical Twilight 2:38 AM IST 12:39 AM IST
Moon 12:42 AM IST (7/31) 4:35 PM IST (7/31)
Length of Visible Light 17h 01m
Length of Day
15h 36m
Waning Crescent, 34% of the Moon is Illuminated
Jul 31
Waning Crescent
Aug 6
New
Aug 14
First Quarter
Aug 21
Full
Aug 28
Last Quarter

Hourly Weather History & Observations

Time (IST) Temp. Dew Point Humidity Pressure Visibility Wind Dir Wind Speed Gust Speed Precip Events Conditions
12:00 AM 60.8 °F 55.4 °F 82% 29.89 in 6.2 mi SSW 4.6 mph - N/A   Mostly Cloudy
12:30 AM 59.0 °F 55.4 °F 88% 29.89 in 6.2 mi South 6.9 mph - N/A   Mostly Cloudy
1:00 AM 59 °F 55 °F 82% 29.90 in 12 mi South 6.7 mph - -   Scattered Clouds
1:00 AM 59.0 °F 55.4 °F 88% 29.89 in 6.2 mi South 6.9 mph - N/A   Mostly Cloudy
1:30 AM 59.0 °F 55.4 °F 88% 29.89 in 6.2 mi South 4.6 mph - N/A   Mostly Cloudy
2:00 AM 59.0 °F 53.6 °F 82% 29.89 in 6.2 mi South 5.8 mph - N/A   Mostly Cloudy
2:30 AM 59.0 °F 55.4 °F 88% 29.86 in 6.2 mi ESE 5.8 mph - N/A Rain Light Rain
3:00 AM 59.0 °F 55.4 °F 88% 29.86 in 6.2 mi ESE 3.5 mph - N/A Rain Light Rain
3:30 AM 57.2 °F 55.4 °F 94% 29.86 in 6.2 mi ESE 6.9 mph - N/A Rain Light Rain
4:00 AM 55.4 °F 55.4 °F 100% 29.86 in 6.2 mi ESE 8.1 mph - N/A Rain Light Rain
4:30 AM 57.2 °F 55.4 °F 94% 29.86 in 4.3 mi SE 8.1 mph - N/A Rain Light Rain
5:00 AM 55.4 °F 55.4 °F 100% 29.86 in 4.3 mi SE 6.9 mph - N/A Rain Light Rain
5:30 AM 55.4 °F 55.4 °F 100% 29.86 in 3.7 mi SE 8.1 mph - N/A Rain Light Rain
6:00 AM 55.4 °F 55.4 °F 100% 29.83 in 3.7 mi ESE 5.8 mph - N/A Rain Light Rain
6:30 AM 55.4 °F 55.4 °F 100% 29.83 in 5.0 mi East 6.9 mph - N/A Rain Light Rain
7:00 AM 56 °F 55 °F 97% 29.84 in 5 mi ENE 6.7 mph - - Rain Light Rain
7:00 AM 55.4 °F 55.4 °F 100% 29.83 in 5.0 mi ENE 6.9 mph - N/A Rain Light Rain
7:30 AM 55.4 °F 55.4 °F 100% 29.83 in 3.7 mi East 10.4 mph - N/A Rain Light Rain
8:00 AM 57.2 °F 55.4 °F 94% 29.80 in 3.7 mi East 10.4 mph - N/A Rain Light Rain
8:30 AM 57.2 °F 55.4 °F 94% 29.80 in 3.7 mi East 9.2 mph - N/A   Light Drizzle
9:00 AM 57.2 °F 55.4 °F 94% 29.80 in 2.8 mi East 10.4 mph - N/A Rain Light Rain
9:30 AM 57.2 °F 57.2 °F 100% 29.77 in 1.6 mi East 10.4 mph - N/A Rain Light Rain
10:00 AM 57.2 °F 57.2 °F 100% 29.77 in 1.2 mi East 9.2 mph - N/A Rain Light Rain
10:30 AM 57.2 °F 57.2 °F 100% 29.77 in 3.7 mi East 10.4 mph - N/A Rain Rain
11:00 AM 59.0 °F 57.2 °F 94% 29.74 in 3.7 mi East 8.1 mph - N/A Rain Light Rain
11:30 AM 59.0 °F 59.0 °F 100% 29.74 in 3.7 mi East 12.7 mph - N/A Rain Light Rain
12:00 PM 59.0 °F 59.0 °F 100% 29.71 in 6.2 mi East 13.8 mph - N/A Rain Light Rain
12:30 PM 60.8 °F 60.8 °F 100% 29.71 in 6.2 mi East 11.5 mph - N/A   Light Drizzle
1:00 PM 62 °F 62 °F 99% 29.70 in 12 mi East 13.4 mph - - Rain Light Rain
1:00 PM 62.6 °F 62.6 °F 100% 29.68 in 6.2 mi East 13.8 mph - N/A   Mostly Cloudy
1:30 PM 64.4 °F 64.4 °F 100% 29.68 in 6.2 mi East 13.8 mph - N/A   Mostly Cloudy
2:00 PM 68.0 °F 66.2 °F 94% 29.68 in 5.0 mi ESE 12.7 mph - N/A   Light Drizzle
2:30 PM 69.8 °F 66.2 °F 88% 29.65 in 5.0 mi SSE 15.0 mph - N/A   Mostly Cloudy
3:00 PM 68.0 °F 66.2 °F 94% 29.65 in 2.8 mi South 10.4 mph - N/A Rain Light Rain
3:30 PM 69.8 °F 68.0 °F 94% 29.65 in 6.2 mi South 12.7 mph - N/A   Mostly Cloudy
4:00 PM 71.6 °F 66.2 °F 83% 29.65 in 6.2 mi SSW 12.7 mph - N/A   Mostly Cloudy
4:30 PM 69.8 °F 66.2 °F 88% 29.65 in 0.9 mi SSW 15.0 mph - N/A Rain Light Rain
5:00 PM 68.0 °F 66.2 °F 94% 29.65 in 6.2 mi South 15.0 mph - N/A   Mostly Cloudy
5:30 PM 69.8 °F 66.2 °F 88% 29.65 in 6.2 mi SSW 16.1 mph - N/A Rain Light Rain Showers
6:00 PM 68.0 °F 66.2 °F 94% 29.65 in 6.2 mi SW 11.5 mph - N/A   Mostly Cloudy
6:30 PM 69.8 °F 64.4 °F 83% 29.65 in 6.2 mi South 13.8 mph - N/A   Mostly Cloudy
7:00 PM 69 °F 64 °F 77% 29.66 in 19 mi South 11.2 mph - -   Partly Cloudy
7:00 PM 69.8 °F 64.4 °F 83% 29.65 in 6.2 mi South 10.4 mph - N/A   Mostly Cloudy
7:30 PM 68.0 °F 62.6 °F 83% 29.65 in 6.2 mi South 12.7 mph - N/A   Mostly Cloudy
8:00 PM 68.0 °F 62.6 °F 83% 29.65 in 6.2 mi South 10.4 mph - N/A   Mostly Cloudy
8:30 PM 68.0 °F 62.6 °F 83% 29.65 in 6.2 mi SSE 10.4 mph - N/A   Mostly Cloudy
9:00 PM 66.2 °F 62.6 °F 88% 29.65 in 6.2 mi SSE 15.0 mph - N/A   Mostly Cloudy
9:30 PM 66.2 °F 62.6 °F 88% 29.65 in 6.2 mi South 6.9 mph - N/A   Mostly Cloudy
10:00 PM 66.2 °F 62.6 °F 88% 29.65 in 6.2 mi SSE 15.0 mph - N/A   Mostly Cloudy
10:30 PM 66.2 °F 62.6 °F 88% 29.65 in 6.2 mi SSE 11.5 mph - N/A   Scattered Clouds
11:00 PM 66.2 °F 62.6 °F 88% 29.65 in 6.2 mi South 11.5 mph - N/A   Mostly Cloudy
11:30 PM 66.2 °F 62.6 °F 88% 29.65 in 6.2 mi SSE 9.2 mph - N/A   Mostly Cloudy